Terminal Aerodrome Forecast
Issued by NWS

Home | Current Version | Previous Version | Text Only | Print | Product List | Glossary On
Versions: 1 2 3 4 5 6 7 8 9 10 11 12 13 14 15 16 17
000
FTUS41 KGYX 162322
TAFRKD
TAF
KRKD 162322Z 1700/1724 20003KT P6SM SCT150
     FM170300 29003KT P6SM SKC
     FM171800 VRB03KT P6SM SCT100 BKN250
      AMD LTD TO CLD VIS AND WIND=

USA.gov is the U.S. government's official web portal to all federal, state and local government web resources and services.